| time (UTC) | temp C | wind direction | speed KPH | gust KPH | rain 1hr cm | rain 24hr cm | rain mn cm | humidity % | barometer mb |
| 20260505051538 | 9 | 199 | 4.8 | 14.5 | 0.00 | 0.00 | 0.00 | 94 | 1012.3 |
| 20260505041550 | 9 | 225 | 3.2 | 17.7 | 0.00 | 0.00 | 0.00 | 93 | 1012.8 |
| 20260505040042 | 9 | 191 | 8.0 | 16.1 | 0.00 | 0.00 | 0.00 | 93 | 1012.7 |
| 20260505034601 | 9 | 211 | 6.4 | 17.7 | 0.00 | 0.00 | 0.00 | 92 | 1012.8 |
| 20260505033045 | 9 | 219 | 4.8 | 19.3 | 0.00 | 0.00 | 0.00 | 92 | 1012.8 |
| 20260505031536 | 9 | 233 | 4.8 | 24.1 | 0.00 | 0.00 | 0.00 | 92 | 1012.9 |
| 20260505030046 | 9 | 195 | 8.0 | 16.1 | 0.00 | 0.00 | 0.00 | 92 | 1013.0 |
| 20260505024540 | 9 | 199 | 8.0 | 17.7 | 0.00 | 0.00 | 0.00 | 92 | 1013.0 |
| 20260505023046 | 9 | 225 | 4.8 | 19.3 | 0.00 | 0.00 | 0.00 | 91 | 1013.0 |
| 20260505021537 | 10 | 202 | 6.4 | 20.9 | 0.00 | 0.00 | 0.00 | 91 | 1013.1 |
| 20260505020037 | 10 | 237 | 8.0 | 17.7 | 0.00 | 0.00 | 0.00 | 90 | 1013.1 |
| 20260505014544 | 10 | 212 | 6.4 | 17.7 | 0.00 | 0.00 | 0.00 | 89 | 1013.1 |
| 20260505013043 | 10 | 186 | 11.3 | 22.5 | 0.00 | 0.00 | 0.00 | 89 | 1012.8 |
| 20260505011557 | 10 | 245 | 8.0 | 20.9 | 0.00 | 0.00 | 0.00 | 88 | 1012.6 |
| 20260505010039 | 10 | 211 | 9.7 | 20.9 | 0.00 | 0.00 | 0.00 | 87 | 1012.4 |
| 20260505004547 | 10 | 225 | 11.3 | 29.0 | 0.00 | 0.00 | 0.00 | 86 | 1012.1 |
| 20260505003052 | 10 | 202 | 4.8 | 22.5 | 0.00 | 0.00 | 0.00 | 85 | 1011.9 |
| 20260505001558 | 10 | 188 | 12.9 | 25.7 | 0.00 | 0.00 | 0.00 | 84 | 1011.8 |
| 20260505000100 | 10 | 235 | 9.7 | 29.0 | 0.00 | 0.00 | 0.00 | 83 | 1011.6 |
| 20260504234607 | 10 | 177 | 9.7 | 29.0 | 0.00 | 0.00 | 0.00 | 82 | 1011.5 |
| 20260504233051 | 11 | 192 | 11.3 | 25.7 | 0.00 | 0.00 | 0.00 | 81 | 1011.5 |
| 20260504231537 | 11 | 160 | 11.3 | 29.0 | 0.00 | 0.00 | 0.00 | 81 | 1011.3 |
| 20260504230046 | 11 | 248 | 8.0 | 24.1 | 0.00 | 0.00 | 0.00 | 80 | 1011.4 |
| 20260504224544 | 11 | 232 | 9.7 | 25.7 | 0.00 | 0.00 | 0.00 | 78 | 1011.2 |
| 20260504223044 | 12 | 195 | 11.3 | 27.4 | 0.00 | 0.00 | 0.00 | 76 | 1011.2 |
| 20260504221539 | 12 | 212 | 11.3 | 30.6 | 0.00 | 0.00 | 0.00 | 75 | 1011.2 |
| 20260504220039 | 13 | 207 | 12.9 | 32.2 | 0.00 | 0.00 | 0.00 | 72 | 1011.2 |
| 20260504214542 | 13 | 227 | 11.3 | 30.6 | 0.00 | 0.00 | 0.00 | 72 | 1011.1 |
| 20260504213038 | 13 | 229 | 9.7 | 27.4 | 0.00 | 0.00 | 0.00 | 70 | 1011.0 |
| 20260504211543 | 13 | 205 | 11.3 | 29.0 | 0.00 | 0.00 | 0.00 | 69 | 1011.0 |
| 20260504210043 | 14 | 223 | 11.3 | 25.7 | 0.00 | 0.00 | 0.00 | 69 | 1011.0 |
| 20260504204540 | 14 | 247 | 9.7 | 29.0 | 0.00 | 0.00 | 0.00 | 71 | 1011.0 |
| 20260504203057 | 14 | 184 | 14.5 | 27.4 | 0.00 | 0.00 | 0.00 | 70 | 1010.8 |
| 20260504201538 | 13 | 226 | 11.3 | 30.6 | 0.00 | 0.00 | 0.00 | 72 | 1010.8 |
| 20260504200037 | 13 | 197 | 12.9 | 33.8 | 0.00 | 0.00 | 0.00 | 72 | 1010.8 |
| 20260504194537 | 14 | 194 | 14.5 | 33.8 | 0.00 | 0.00 | 0.00 | 69 | 1010.7 |
| 20260504193043 | 14 | 161 | 12.9 | 33.8 | 0.00 | 0.00 | 0.00 | 69 | 1010.7 |
| 20260504191549 | 15 | 207 | 12.9 | 29.0 | 0.00 | 0.00 | 0.00 | 70 | 1010.8 |
| 20260504190041 | 15 | 185 | 12.9 | 29.0 | 0.00 | 0.00 | 0.00 | 68 | 1011.1 |
| 20260504184539 | 15 | 196 | 9.7 | 24.1 | 0.00 | 0.00 | 0.00 | 67 | 1011.2 |
| 20260504183037 | 16 | 199 | 9.7 | 25.7 | 0.00 | 0.00 | 0.00 | 65 | 1011.3 |
| 20260504181538 | 16 | 200 | 11.3 | 32.2 | 0.00 | 0.00 | 0.00 | 65 | 1011.3 |
| 20260504180044 | 16 | 203 | 9.7 | 27.4 | 0.00 | 0.00 | 0.00 | 65 | 1011.2 |
| 20260504174540 | 16 | 235 | 12.9 | 30.6 | 0.00 | 0.00 | 0.00 | 65 | 1011.3 |
| 20260504173038 | 15 | 246 | 11.3 | 24.1 | 0.00 | 0.00 | 0.00 | 69 | 1011.3 |
| 20260504171546 | 15 | 249 | 14.5 | 29.0 | 0.00 | 0.00 | 0.00 | 69 | 1011.3 |
| 20260504081537 | 8 | 211 | 1.6 | 9.7 | 0.00 | 0.00 | 0.00 | 72 | 1012.0 |